1506412800.13,20514,14.75,74644.0,6.91,-9.45,-7.61,0,*79
1506412801.37,20515,14.69,74638.0,6.91,-10.45,-8.51,0,*4C
1506412802.6,20516,14.69,74642.3,6.91,-10.31,-8.37,0,*4C
1506412803.85,20517,14.69,74640.8,6.91,-11.29,-9.31,0,*42
1506412805.1,20518,14.69,74640.5,6.91,-11.41,-9.49,0,*4C
1506412806.33,20519,14.69,74640.0,6.91,-10.97,-9.19,0,*42
1506412807.57,20520,14.69,74642.0,6.91,-9.79,-7.95,0,*7A
1506412808.79,20521,14.69,74636.5,6.91,-10.01,-7.87,0,*4F
1506412810.05,20522,14.69,74642.8,6.91,-10.67,-8.29,0,*47
1506412811.29,20523,14.75,74640.8,6.91,-10.71,-8.63,0,*4F
1506412812.51,20524,14.69,74642.0,6.91,-10.53,-8.75,0,*4F
1506412813.7,20525,14.75,74642.3,6.93,-9.79,-7.83,0,*7A
1506412814.94,20526,14.69,74640.5,6.95,-9.31,-7.39,0,*72
1506412816.19,20527,14.75,74644.5,6.95,-9.83,-7.69,0,*7F
1506412817.4,20528,14.69,74642.3,6.95,-10.09,-8.21,0,*49
1506412818.67,20529,14.75,74644.0,6.95,-10.41,-8.51,0,*43
1506412819.89,20530,14.75,74642.3,6.95,-10.35,-8.45,0,*4D
1506412821.09,20531,14.75,74642.3,6.97,-10.35,-8.45,0,*4E
1506412822.31,20532,14.75,74640.0,6.97,-10.67,-9.01,0,*4B
1506412823.54,20533,14.69,74640.0,6.99,-10.35,-8.45,0,*42
1506412824.79,20534,14.75,74640.8,6.99,-10.63,-8.89,0,*46
1506412826.01,20535,14.75,74640.0,6.99,-10.35,-8.71,0,*43
1506412827.22,20536,14.75,74640.8,6.99,-10.09,-8.41,0,*4C
1506412828.43,20537,14.75,74640.8,7.03,-9.93,-8.29,0,*7A
1506412829.67,20538,14.69,74636.0,7.03,-9.45,-7.87,0,*75
1506412830.91,20539,14.75,74636.8,7.03,-9.45,-7.87,0,*74
1506412832.13,20540,14.75,74638.3,7.05,-9.31,-7.69,0,*7F
1506412833.37,20541,14.75,74638.0,7.07,-9.31,-7.65,0,*70
1506412834.57,20542,14.75,74638.3,7.09,-10.23,-8.37,0,*4E
1506412835.75,20543,14.69,74636.0,7.09,-10.53,-9.19,0,*45
1506412837.0,20544,14.75,74642.0,7.07,-10.97,-9.45,0,*4D
1506412838.22,20545,14.69,74636.0,7.07,-9.75,-8.25,0,*7F
1506412839.42,20546,14.75,74636.3,7.09,-10.35,-9.01,0,*49
1506412840.61,20547,14.75,74638.3,7.09,-10.57,-9.27,0,*48
1506412841.8,20548,14.75,74638.8,7.09,-10.23,-8.63,0,*45
1506412843.0,20549,14.75,74638.0,7.11,-10.05,-8.67,0,*4D
1506412844.22,20550,14.75,74632.3,7.13,-10.41,-9.05,0,*42
1506412845.43,20551,14.75,74630.5,7.11,-10.53,-9.23,0,*46
1506412846.7,20552,14.75,74634.3,7.11,-10.79,-9.49,0,*41
1506412847.93,20553,14.75,74634.3,7.11,-11.45,-10.09,0,*72
1506412849.17,20554,14.75,74634.8,7.11,-11.85,-10.53,0,*76
1506412850.43,20555,14.75,74634.5,7.11,-11.77,-10.31,0,*7E
1506412851.66,20556,14.75,74638.5,7.09,-11.77,-10.27,0,*73
1506412852.88,20557,14.75,74638.3,7.09,-11.67,-10.09,0,*7F
1506412854.1,20558,14.75,74632.3,7.07,-11.23,-9.89,0,*4E
1506412855.35,20559,14.75,74636.3,7.07,-10.85,-9.53,0,*45
1506412856.55,20560,14.75,74634.3,7.09,-10.35,-8.89,0,*4C
1506412857.74,20561,14.75,74632.3,7.09,-10.49,-8.93,0,*4D
1506412858.95,20562,14.75,74634.8,7.11,-10.31,-8.67,0,*43
1506412860.13,20563,14.75,74636.5,7.13,-9.93,-8.29,0,*7A
1506412861.32,20564,14.75,74634.3,7.13,-9.75,-8.17,0,*78
1506412862.53,20565,14.75,74638.5,7.15,-9.75,-8.17,0,*7F
1506412863.75,20566,14.75,74636.5,7.17,-10.71,-9.19,0,*4D
1506412864.98,20567,14.75,74640.5,7.17,-11.01,-9.53,0,*44
1506412866.22,20568,14.75,74638.8,7.17,-10.41,-8.81,0,*40
1506412867.45,20569,14.75,74636.0,7.17,-9.57,-7.99,0,*78
1506412868.68,20570,14.75,74638.8,7.21,-10.63,-9.01,0,*45
1506412869.9,20571,14.75,74638.3,7.19,-10.53,-9.01,0,*4C
1506412871.09,20572,14.75,74638.0,7.21,-10.09,-8.45,0,*4A
1506412872.27,20573,14.75,74640.3,7.21,-9.93,-8.29,0,*7A
1506412873.51,20574,14.75,74638.3,7.27,-10.05,-8.51,0,*43
1506412874.75,20575,14.75,74634.8,7.27,-10.19,-8.51,0,*4F
1506412875.95,20576,14.75,74638.5,7.29,-10.01,-8.37,0,*4B
1506412877.22,20577,14.75,74634.0,7.31,-11.07,-9.37,0,*45
1506412878.48,20578,14.75,74634.0,7.31,-11.89,-10.23,0,*71
1506412879.7,20579,14.75,74634.8,7.29,-11.11,-9.61,0,*46
1506412880.91,20580,14.75,74636.8,7.29,-10.79,-9.31,0,*4A
1506412882.14,20581,14.75,74638.8,7.29,-10.67,-9.01,0,*47
1506412883.41,20582,14.75,74638.5,7.31,-11.29,-9.57,0,*45
1506412884.67,20583,14.75,74638.5,7.29,-11.29,-9.61,0,*48
1506412885.92,20584,14.75,74636.5,7.31,-11.77,-10.23,0,*73
1506412887.16,20585,14.81,74642.0,7.31,-11.23,-9.61,0,*4D
1506412888.4,20586,14.75,74638.0,7.31,-10.79,-9.19,0,*4F
1506412889.65,20587,14.75,74636.0,7.31,-11.81,-10.15,0,*7C
1506412890.89,20588,14.75,74636.5,7.31,-11.15,-9.57,0,*40
1506412892.14,20589,14.75,74636.8,7.31,-10.67,-9.05,0,*42
1506412893.35,20590,14.75,74638.8,7.31,-10.53,-8.93,0,*43
1506412894.6,20591,14.75,74636.0,7.35,-10.75,-9.19,0,*41
1506412895.82,20592,14.75,74634.3,7.33,-11.01,-9.49,0,*43
1506412897.05,20593,14.75,74632.8,7.35,-11.45,-9.93,0,*43
1506412898.25,20594,14.75,74632.5,7.33,-11.23,-9.79,0,*46
1506412899.46,20595,14.75,74638.0,7.33,-11.23,-9.71,0,*4F
1506412900.67,20596,14.75,74634.0,7.35,-10.15,-8.59,0,*45
1506412901.88,20597,14.75,74632.8,7.33,-9.83,-8.29,0,*72
1506412903.1,20598,14.75,74636.8,7.35,-10.57,-8.97,0,*4F
1506412904.33,20599,14.75,74634.5,7.37,-10.97,-9.49,0,*42
1506412905.54,20600,14.75,74632.5,7.39,-10.85,-9.31,0,*43
1506412906.76,20601,14.75,74634.5,7.37,-10.63,-9.19,0,*4E
1506412908.01,20602,14.75,74632.3,7.39,-10.71,-9.23,0,*49
1506412909.26,20603,14.81,74634.8,7.39,-10.85,-9.37,0,*46
1506412910.48,20604,14.81,74636.5,7.39,-10.27,-8.89,0,*4D
1506412911.73,20605,14.81,74634.3,7.39,-10.41,-8.93,0,*47
1506412912.91,20606,14.75,74634.5,7.41,-10.27,-8.63,0,*44
1506412914.13,20607,14.81,74632.5,7.41,-10.63,-9.01,0,*40
1506412915.32,20608,14.81,74638.8,7.41,-10.27,-8.75,0,*4D
1506412916.51,20609,14.81,74634.3,7.41,-10.93,-9.31,0,*42
1506412917.69,20610,14.81,74634.5,7.41,-10.93,-9.31,0,*4A
1506412918.91,20611,14.81,74636.3,7.43,-10.93,-9.31,0,*49
1506412920.15,20612,14.81,74638.8,7.43,-10.41,-8.85,0,*4B
1506412921.37,20613,14.81,74634.5,7.43,-10.05,-8.37,0,*43
1506412922.59,20614,14.81,74634.5,7.49,-10.45,-8.97,0,*40
1506412923.84,20615,14.81,74636.8,7.49,-10.71,-9.05,0,*4C
1506412925.06,20616,14.81,74634.8,7.49,-10.31,-8.85,0,*42
1506412926.29,20617,14.81,74634.0,7.49,-10.35,-8.93,0,*40
1506412927.53,20618,14.81,74638.8,7.49,-10.85,-9.11,0,*4F
1506412928.77,20619,14.75,74632.5,7.51,-10.41,-8.81,0,*47
1506412930.0,20620,14.81,74638.0,7.51,-11.01,-9.37,0,*44
1506412931.22,20621,14.81,74636.5,7.51,-10.15,-8.51,0,*40
1506412932.42,20622,14.81,74636.8,7.55,-10.01,-8.45,0,*47
1506412933.61,20623,14.81,74636.8,7.55,-10.85,-9.19,0,*42
1506412934.84,20624,14.81,74636.5,7.55,-10.63,-8.85,0,*49
1506412936.09,20625,14.81,74636.3,7.55,-10.79,-9.41,0,*4A
1506412937.33,20626,14.81,74634.8,7.55,-9.53,-7.65,0,*71
1506412938.52,20627,14.81,74634.0,7.59,-8.37,-6.77,0,*7D
1506412939.74,20628,14.81,74636.3,7.59,-7.43,-6.01,0,*7F
1506412940.98,20629,14.81,74638.8,7.59,-6.93,-5.11,0,*70
1506412942.2,20630,14.81,74638.5,7.61,-7.49,-5.47,0,*76
1506412943.41,20631,14.81,74638.0,7.61,-7.87,-5.35,0,*70
1506412944.63,20632,14.81,74642.0,7.65,-8.93,-6.09,0,*71
1506412945.84,20633,14.81,74636.8,7.63,-10.23,-7.69,0,*43
1506412947.09,20634,14.81,74634.3,7.65,-9.27,-7.31,0,*73
1506412948.3,20635,14.81,74636.0,7.67,-9.01,-6.93,0,*7D
1506412949.51,20636,14.81,74634.3,7.67,-9.67,-7.65,0,*76
1506412950.73,20637,14.81,74634.8,7.67,-10.09,-8.07,0,*4C
1506412951.95,20638,14.81,74630.5,7.73,-10.19,-8.29,0,*4B
1506412953.16,20639,14.81,74632.5,7.73,-9.75,-7.87,0,*73
1506412954.39,20640,14.81,74632.0,7.75,-9.53,-7.65,0,*73
1506412955.61,20641,14.81,74634.3,7.75,-10.41,-8.63,0,*40
1506412956.79,20642,14.81,74632.3,7.75,-10.09,-8.45,0,*4B
1506412958.02,20643,14.81,74636.0,7.75,-9.83,-8.11,0,*71
1506412959.26,20644,14.81,74634.3,7.75,-8.07,-6.63,0,*70
1506412960.53,20645,14.81,74634.3,7.77,-7.65,-6.19,0,*75
1506412961.75,20646,14.81,74634.8,7.79,-7.61,-6.47,0,*77
1506412962.98,20647,14.81,74632.0,7.79,-7.91,-6.19,0,*72
1506412964.2,20648,14.81,74636.3,7.81,-7.69,-5.35,0,*70
1506412965.44,20649,14.81,74638.5,7.79,-8.07,-5.77,0,*77
1506412966.66,20650,14.81,74636.0,7.81,-8.55,-6.63,0,*79
1506412967.91,20651,14.81,74638.0,7.81,-7.99,-5.31,0,*73
1506412969.15,20652,14.81,74632.5,7.81,-8.51,-5.65,0,*7A
1506412970.35,20653,14.81,74634.5,7.81,-8.55,-6.09,0,*76
1506412971.56,20654,14.81,74638.8,7.83,-8.97,-6.69,0,*7B
1506412972.83,20655,14.81,74638.5,7.83,-9.37,-7.35,0,*79
1506412974.02,20656,14.81,74636.3,7.85,-8.67,-6.51,0,*7B
1506412975.24,20657,14.81,74642.3,7.85,-8.75,-6.63,0,*78
1506412976.52,20658,14.81,74636.8,7.87,-8.51,-5.85,0,*78
1506412977.77,20659,14.81,74640.3,7.87,-9.41,-6.47,0,*74
1506412979.04,20660,14.81,74642.8,7.87,-9.83,-7.31,0,*70
1506412980.26,20661,14.81,74638.8,7.85,-10.35,-7.99,0,*44
1506412981.5,20662,14.81,74640.8,7.87,-10.97,-8.89,0,*43
1506412982.75,20663,14.81,74642.8,7.87,-11.89,-9.71,0,*4A
1506412984.0,20664,14.88,74644.0,7.87,-11.51,-9.19,0,*46
1506412985.2,20665,14.81,74642.3,7.85,-10.97,-8.89,0,*46
1506412986.39,20666,14.88,74646.0,7.85,-10.53,-8.59,0,*40
1506412987.62,20667,14.88,74644.8,7.87,-10.57,-8.45,0,*4A
1506412988.84,20668,14.81,74640.8,7.87,-10.93,-8.63,0,*49
1506412990.06,20669,14.81,74640.0,7.85,-10.67,-8.33,0,*44
1506412991.29,20670,14.88,74640.5,7.89,-10.79,-8.45,0,*4E
1506412992.51,20671,14.88,74642.3,7.89,-10.67,-8.33,0,*41
1506412993.74,20672,14.81,74640.5,7.87,-11.41,-9.01,0,*49
1506412995.02,20673,14.81,74640.5,7.87,-11.63,-9.15,0,*4D
1506412996.27,20674,14.88,74642.3,7.87,-11.29,-8.93,0,*4B
1506412997.52,20675,14.88,74642.5,7.85,-11.07,-8.81,0,*47
1506412998.74,20676,14.88,74640.8,7.85,-10.23,-7.77,0,*45
1506412999.97,20677,14.81,74638.8,7.87,-10.09,-7.87,0,*41
1506413001.19,20678,14.88,74640.8,7.89,-10.41,-8.21,0,*4F
1506413002.38,20679,14.88,74636.5,7.89,-10.89,-8.55,0,*49
1506413003.59,20680,14.88,74642.8,7.89,-10.19,-8.37,0,*42
1506413004.79,20681,14.88,74638.0,7.93,-10.35,-8.37,0,*46
1506413006.01,20682,14.88,74642.3,7.89,-10.79,-8.55,0,*42
1506413007.22,20683,14.88,74640.5,7.89,-9.67,-7.39,0,*71
1506413008.44,20684,14.88,74636.8,7.89,-9.53,-7.23,0,*7A
1506413009.66,20685,14.88,74636.3,7.93,-9.53,-7.23,0,*70
1506413010.88,20686,14.88,74636.3,7.93,-9.75,-7.31,0,*74
1506413012.09,20687,14.88,74636.8,7.97,-9.89,-7.43,0,*77
1506413013.3,20688,14.88,74636.0,7.97,-10.57,-8.37,0,*4F
1506413014.55,20689,14.88,74644.0,7.97,-12.11,-9.83,0,*40
1506413015.8,20690,14.88,74640.0,7.99,-12.11,-10.01,0,*74
1506413017.05,20691,14.88,74644.8,7.97,-11.73,-9.61,0,*42
1506413018.27,20692,14.88,74644.8,7.95,-11.11,-9.05,0,*45
1506413019.47,20693,14.88,74644.3,7.97,-11.11,-9.05,0,*46
1506413020.66,20694,14.88,74644.8,7.97,-10.93,-8.63,0,*4B
1506413021.86,20695,14.88,74640.8,7.97,-10.97,-8.75,0,*49
1506413023.07,20696,14.88,74642.0,7.97,-12.21,-9.97,0,*48
1506413024.32,20697,14.88,74640.3,7.97,-12.11,-9.83,0,*4F
1506413025.56,20698,14.88,74642.3,7.95,-11.67,-9.19,0,*43
1506413026.78,20699,14.88,74638.5,7.97,-10.53,-8.11,0,*4F
1506413028.0,20700,14.88,74638.5,7.97,-10.53,-7.99,0,*41
1506413029.21,20701,14.88,74638.3,7.99,-10.53,-8.25,0,*46
1506413030.41,20702,14.88,74636.3,7.99,-10.85,-8.67,0,*48
1506413031.6,20703,14.88,74640.3,8.01,-10.09,-8.21,0,*41
1506413032.85,20704,14.88,74636.5,7.99,-10.01,-7.73,0,*48
1506413034.07,20705,14.88,74638.0,8.01,-10.35,-8.03,0,*48
1506413035.29,20706,14.88,74632.3,8.01,-10.53,-8.07,0,*4F
1506413036.5,20707,14.88,74636.8,8.01,-9.79,-7.39,0,*7C
1506413037.74,20708,14.88,74636.8,8.01,-9.53,-7.27,0,*74
1506413038.94,20709,14.88,74638.3,8.01,-10.15,-7.87,0,*45
1506413040.18,20710,14.88,74638.0,8.01,-9.53,-7.35,0,*7E
1506413041.38,20711,14.88,74636.5,8.01,-8.89,-7.11,0,*7F
1506413042.63,20712,14.88,74638.0,8.03,-9.41,-7.23,0,*7A
1506413043.86,20713,14.88,74636.0,8.03,-8.93,-6.51,0,*71
1506413045.13,20714,14.88,74640.3,8.03,-9.11,-6.27,0,*7C
1506413046.38,20715,14.88,74642.0,8.03,-8.71,-5.93,0,*76
1506413047.57,20716,14.88,74638.8,8.05,-8.55,-6.05,0,*79
1506413048.78,20717,14.88,74640.3,8.05,-10.23,-7.35,0,*42
1506413050.03,20718,14.88,74636.3,8.05,-10.63,-7.77,0,*4F
1506413051.25,20719,14.88,74636.0,8.05,-9.37,-6.77,0,*76
1506413052.46,20720,14.88,74638.3,8.07,-8.55,-6.59,0,*77
1506413053.72,20721,14.88,74638.5,8.07,-6.93,-6.23,0,*7F
1506413054.94,20722,14.94,74640.8,8.09,-5.07,-4.25,0,*78
1506413056.15,20723,14.94,74638.0,8.09,-4.53,-2.71,0,*7E
1506413057.39,20724,14.88,74638.0,8.09,-4.73,-2.59,0,*71
1506413058.6,20725,14.88,74636.3,8.15,-5.15,-2.39,0,*7A
1506413059.78,20726,14.88,74634.0,8.15,-6.05,-2.79,0,*7F
1506413060.96,20727,14.88,74638.0,8.15,-6.13,-2.79,0,*79
1506413062.18,20728,14.94,74640.8,8.17,-6.01,-2.87,0,*76
1506413063.4,20729,14.88,74636.0,8.19,-5.89,-3.11,0,*74
1506413064.59,20730,14.94,74642.0,8.19,-6.13,-3.39,0,*76
1506413065.82,20731,14.88,74638.5,8.21,-7.27,-4.25,0,*70
1506413067.06,20732,14.94,74636.5,8.25,-7.35,-4.99,0,*73
1506413068.27,20733,14.88,74636.8,8.23,-7.87,-5.61,0,*7B
1506413069.49,20734,14.88,74638.3,8.23,-8.17,-5.65,0,*7E
1506413070.7,20735,14.88,74634.3,8.23,-8.17,-5.69,0,*73
1506413071.91,20736,14.94,74638.8,8.23,-8.63,-5.19,0,*74
1506413073.1,20737,14.94,74638.8,8.23,-9.31,-6.31,0,*7A
1506413074.32,20738,14.94,74638.5,8.23,-8.59,-5.65,0,*78
1506413075.5,20739,14.94,74638.0,8.23,-10.01,-6.59,0,*41
1506413076.74,20740,14.94,74640.3,8.25,-8.29,-5.69,0,*7A
1506413077.93,20741,14.94,74640.3,8.27,-6.77,-4.57,0,*70
1506413079.12,20742,14.94,74640.0,8.27,-7.19,-4.53,0,*7E
1506413080.34,20743,14.94,74638.0,8.25,-8.93,-5.35,0,*71
1506413081.55,20744,14.94,74636.5,8.27,-10.05,-7.01,0,*47
1506413082.79,20745,14.94,74640.5,8.29,-10.05,-7.43,0,*4E
1506413084.03,20746,14.94,74638.5,8.29,-9.75,-6.63,0,*71
1506413085.3,20747,14.94,74636.3,8.29,-10.71,-7.57,0,*4A
1506413086.52,20748,14.94,74638.5,8.31,-10.23,-7.39,0,*43
1506413087.72,20749,14.94,74638.5,8.31,-10.53,-8.03,0,*43
1506413088.94,20750,14.94,74642.0,8.31,-10.15,-7.69,0,*4A
1506413090.15,20751,14.94,74640.3,8.31,-10.01,-7.61,0,*46
1506413091.4,20752,14.94,74642.3,8.31,-10.71,-7.91,0,*4D
1506413092.61,20753,14.94,74636.5,8.31,-9.71,-7.65,0,*7F
1506413093.83,20754,14.94,74634.5,8.31,-9.15,-6.85,0,*75
1506413095.02,20755,14.94,74634.5,8.31,-8.63,-6.51,0,*7D
1506413096.24,20756,14.94,74636.3,8.33,-9.79,-7.11,0,*73
1506413097.45,20757,14.94,74636.8,8.35,-10.31,-7.39,0,*4A
1506413098.67,20758,14.94,74636.5,8.35,-10.05,-7.35,0,*4E
1506413099.88,20759,14.94,74636.5,8.35,-10.75,-8.17,0,*47
1506413101.1,20760,14.94,74638.0,8.35,-11.07,-8.41,0,*4A
1506413102.34,20761,14.94,74644.3,8.35,-12.11,-9.41,0,*4E
1506413103.53,20762,14.94,74644.5,8.35,-11.41,-8.67,0,*4E
1506413104.75,20763,14.94,74642.0,8.35,-10.93,-7.77,0,*4F
1506413105.95,20764,14.94,74640.5,8.35,-11.45,-8.33,0,*4D
1506413107.14,20765,14.94,74638.5,8.35,-11.01,-8.33,0,*4C
1506413108.32,20766,14.94,74638.8,8.35,-9.67,-7.49,0,*74
1506413109.55,20767,14.94,74636.5,8.35,-10.23,-7.61,0,*47
1506413110.73,20768,14.94,74640.0,8.35,-9.23,-6.85,0,*7B
1506413111.95,20769,14.94,74640.5,8.35,-9.37,-6.69,0,*7D
1506413113.15,20770,14.94,74640.5,8.35,-9.49,-6.69,0,*7C
1506413114.34,20771,14.94,74638.5,8.35,-9.93,-6.73,0,*71
1506413115.55,20772,14.94,74638.5,8.35,-10.31,-7.39,0,*4D
1506413116.79,20773,15.0,74642.0,8.35,-11.07,-8.81,0,*44
1506413117.99,20774,14.94,74640.8,8.35,-10.35,-7.87,0,*4A
1506413119.24,20775,15.0,74644.0,8.33,-11.89,-8.97,0,*45
1506413120.48,20776,15.0,74646.8,8.33,-11.07,-8.37,0,*4A
1506413121.7,20777,15.0,74642.8,8.31,-10.23,-7.57,0,*47
1506413122.91,20778,14.94,74642.5,8.33,-9.79,-6.85,0,*73
1506413124.16,20779,15.0,74644.0,8.33,-9.41,-6.59,0,*78
1506413125.34,20780,15.0,74644.5,8.35,-9.93,-7.19,0,*72
1506413126.53,20781,14.94,74642.8,8.35,-9.01,-6.39,0,*7B
1506413127.72,20782,14.94,74642.8,8.39,-10.05,-7.23,0,*42
1506413128.96,20783,14.94,74642.0,8.39,-10.41,-7.01,0,*43
1506413130.21,20784,15.0,74640.0,8.41,-9.05,-5.89,0,*71
1506413131.41,20785,14.94,74640.0,8.39,-9.93,-6.63,0,*77
1506413132.65,20786,15.0,74642.8,8.41,-11.97,-8.75,0,*4F
1506413133.87,20787,14.94,74638.5,8.41,-12.25,-9.23,0,*46
1506413135.13,20788,14.94,74638.8,8.41,-11.85,-8.81,0,*49
1506413136.39,20789,15.0,74646.0,8.41,-11.67,-8.89,0,*4C
1506413137.63,20790,15.0,74646.5,8.41,-10.45,-7.73,0,*4F
1506413138.87,20791,15.0,74644.5,8.47,-9.71,-6.93,0,*78
1506413140.1,20792,15.0,74646.8,8.47,-10.23,-7.23,0,*4E
1506413141.33,20793,15.0,74646.8,8.47,-9.71,-6.81,0,*79
1506413142.56,20794,15.0,74640.8,8.51,-10.01,-6.97,0,*41
1506413143.81,20795,15.0,74642.8,8.51,-10.23,-7.69,0,*40
1506413145.06,20796,14.94,74636.8,8.51,-10.35,-7.57,0,*49
1506413146.29,20797,15.0,74640.5,8.51,-11.81,-8.75,0,*49
1506413147.54,20798,15.0,74640.5,8.51,-12.07,-9.27,0,*4D
1506413148.78,20799,15.0,74636.0,8.49,-11.97,-9.11,0,*4A
1506413149.98,20800,15.0,74640.8,8.49,-11.15,-8.37,0,*4A
1506413151.24,20801,15.0,74646.0,8.51,-10.93,-8.07,0,*4E
1506413152.48,20802,15.0,74640.0,8.51,-10.93,-8.11,0,*4A
1506413153.74,20803,15.0,74642.5,8.51,-10.97,-8.07,0,*48
1506413154.98,20804,15.0,74642.5,8.51,-10.85,-7.99,0,*44
1506413156.2,20805,15.0,74640.5,8.53,-11.81,-9.05,0,*49
1506413157.42,20806,15.0,74640.0,8.53,-11.81,-9.05,0,*4A
1506413158.65,20807,15.0,74642.8,8.53,-11.63,-8.89,0,*42
1506413159.89,20808,15.0,74642.3,8.55,-11.37,-8.59,0,*47
1506413161.1,20809,15.0,74640.3,8.55,-11.01,-8.33,0,*4F
1506413162.35,20810,15.0,74640.5,8.55,-10.67,-8.33,0,*46
1506413163.56,20811,15.0,74642.3,8.55,-10.49,-8.17,0,*4D
1506413164.78,20812,15.0,74642.8,8.55,-9.67,-7.49,0,*7E
1506413166.0,20813,15.0,74642.3,8.57,-10.31,-7.35,0,*4D
1506413167.19,20814,15.0,74638.0,8.57,-9.79,-6.81,0,*70
1506413168.38,20815,15.0,74636.5,8.57,-9.93,-6.73,0,*78
1506413169.6,20816,15.0,74640.3,8.57,-11.59,-8.33,0,*4E
1506413170.84,20817,15.0,74640.3,8.57,-12.35,-9.11,0,*47
1506413172.12,20818,15.0,74642.0,8.59,-11.85,-9.11,0,*4E
1506413173.34,20819,15.0,74644.5,8.57,-11.51,-8.85,0,*44
1506413174.57,20820,15.0,74642.5,8.57,-12.21,-9.53,0,*40
1506413175.79,20821,15.0,74642.8,8.57,-11.73,-8.85,0,*4F
1506413176.98,20822,15.0,74640.3,8.57,-11.19,-8.75,0,*4F
1506413178.22,20823,15.0,74640.3,8.57,-10.79,-7.77,0,*44
1506413179.44,20824,15.0,74642.0,8.59,-11.45,-8.55,0,*4C
1506413180.69,20825,15.0,74642.0,8.59,-12.11,-9.31,0,*4C
1506413181.94,20826,15.0,74644.3,8.59,-12.29,-9.61,0,*41
1506413183.17,20827,15.0,74646.0,8.59,-13.07,-10.27,0,*77
1506413184.42,20828,15.0,74642.5,8.59,-12.57,-9.75,0,*43
1506413185.67,20829,15.0,74644.3,8.59,-12.25,-9.49,0,*48
1506413186.94,20830,15.0,74642.3,8.59,-12.11,-9.37,0,*4E
1506413188.19,20831,15.0,74646.0,8.59,-11.33,-8.63,0,*4C
1506413189.43,20832,15.0,74644.8,8.63,-11.19,-8.51,0,*4F
1506413190.67,20833,15.0,74646.8,8.65,-11.55,-8.81,0,*4D
1506413191.92,20834,15.0,74642.0,8.63,-11.29,-8.33,0,*4E
1506413193.16,20835,15.0,74646.8,8.65,-11.51,-8.51,0,*42
1506413194.36,20836,15.0,74644.5,8.65,-11.41,-8.33,0,*44
1506413195.56,20837,15.0,74642.8,8.65,-11.23,-8.45,0,*40
1506413196.78,20838,15.06,74644.3,8.65,-11.37,-8.59,0,*47
1506413198.0,20839,15.0,74644.3,8.63,-10.85,-8.21,0,*47
1506413199.2,20840,15.0,74644.3,8.65,-10.97,-8.33,0,*4F
1506413200.39,20841,15.06,74646.3,8.65,-10.53,-7.83,0,*42
1506413201.63,20842,15.0,74644.3,8.65,-10.67,-7.87,0,*42
1506413202.86,20843,15.06,74646.8,8.65,-10.67,-7.87,0,*43
1506413204.09,20844,15.06,74642.5,8.65,-10.41,-7.87,0,*40
1506413205.34,20845,15.06,74642.5,8.67,-10.19,-7.39,0,*4B
1506413206.56,20846,15.0,74638.3,8.67,-10.93,-8.17,0,*49
1506413207.8,20847,15.0,74634.5,8.67,-9.67,-7.27,0,*77
1506413209.02,20848,15.06,74632.0,8.69,-9.11,-6.55,0,*73
1506413210.27,20849,15.06,74638.8,8.67,-10.19,-7.91,0,*45
1506413211.51,20850,15.06,74642.8,8.67,-9.67,-7.69,0,*7B
1506413212.76,20851,15.0,74642.0,8.63,-8.93,-6.27,0,*7F
1506413213.95,20852,15.06,74642.5,8.65,-10.01,-6.77,0,*4D
1506413215.18,20853,15.06,74642.5,8.65,-10.41,-7.15,0,*4D
1506413216.42,20854,15.06,74644.0,8.67,-9.93,-7.27,0,*7E
1506413217.64,20855,15.06,74650.3,8.67,-8.41,-5.51,0,*72
1506413218.84,20856,15.06,74644.5,8.69,-8.41,-5.55,0,*7B
1506413220.06,20857,15.06,74642.0,8.69,-8.71,-6.23,0,*7B
1506413221.28,20858,15.06,74644.5,8.69,-8.59,-4.89,0,*7C
1506413222.5,20859,15.06,74642.5,8.67,-10.49,-6.59,0,*44
1506413223.7,20860,15.06,74642.5,8.69,-9.79,-6.59,0,*7B
1506413224.95,20861,15.06,74638.3,8.67,-9.01,-5.89,0,*75
1506413226.17,20862,15.06,74638.5,8.69,-10.09,-6.97,0,*44
1506413227.38,20863,15.06,74636.5,8.69,-9.97,-7.27,0,*70
1506413228.57,20864,15.06,74642.3,8.69,-11.19,-8.33,0,*42
1506413229.79,20865,15.06,74640.8,8.69,-11.37,-8.17,0,*49
1506413231.04,20866,15.06,74638.8,8.67,-10.41,-7.23,0,*4C
1506413232.24,20867,15.06,74642.3,8.69,-9.23,-6.09,0,*76
1506413233.45,20868,15.06,74642.8,8.73,-9.31,-5.73,0,*7F
1506413234.64,20869,15.06,74640.3,8.73,-10.31,-6.89,0,*40
1506413235.85,20870,15.06,74640.8,8.73,-10.53,-7.31,0,*4E
1506413237.07,20871,15.06,74638.0,8.73,-11.15,-7.99,0,*4E
1506413238.29,20872,15.06,74638.0,8.73,-10.85,-7.43,0,*42
1506413239.53,20873,15.06,74638.0,8.75,-11.59,-8.21,0,*4E
1506413240.78,20874,15.06,74638.8,8.75,-12.29,-9.15,0,*4B
1506413242.02,20875,15.06,74642.3,8.75,-11.93,-8.75,0,*4F
1506413243.27,20876,15.06,74638.3,8.75,-12.15,-8.97,0,*4D
1506413244.48,20877,15.06,74636.8,8.73,-11.67,-8.75,0,*40
1506413245.7,20878,15.06,74638.3,8.75,-12.03,-8.97,0,*44
1506413246.96,20879,15.06,74638.3,8.75,-12.83,-9.83,0,*49
1506413248.22,20880,15.06,74634.5,8.71,-13.01,-10.15,0,*77
1506413249.46,20881,15.06,74638.0,8.73,-13.51,-10.41,0,*70
1506413250.71,20882,15.06,74636.5,8.71,-13.29,-10.35,0,*7D
1506413251.97,20883,15.06,74640.3,8.71,-13.01,-10.01,0,*71
1506413253.21,20884,15.06,74638.3,8.69,-13.43,-10.41,0,*7D
1506413254.41,20885,15.06,74642.3,8.69,-12.47,-9.27,0,*41
1506413255.61,20886,15.06,74640.3,8.69,-12.03,-8.89,0,*47
1506413256.83,20887,15.06,74636.5,8.69,-12.97,-9.83,0,*40
1506413258.06,20888,15.06,74638.8,8.67,-13.19,-10.09,0,*7C
1506413259.31,20889,15.06,74636.3,8.67,-12.29,-9.41,0,*4B
1506413260.59,20890,15.06,74636.8,8.67,-12.57,-9.45,0,*4E
1506413261.81,20891,15.06,74638.0,8.69,-11.89,-8.59,0,*4D
1506413263.05,20892,15.06,74640.0,8.69,-10.63,-7.69,0,*47
1506413264.27,20893,15.06,74638.8,8.69,-11.73,-8.63,0,*43
1506413265.49,20894,15.06,74638.8,8.73,-11.29,-8.33,0,*45
1506413266.73,20895,15.06,74642.5,8.73,-11.29,-7.95,0,*47
1506413267.97,20896,15.06,74638.0,8.73,-11.63,-8.51,0,*4D
1506413269.22,20897,15.06,74636.5,8.73,-12.75,-9.49,0,*40
1506413270.44,20898,15.06,74636.3,8.71,-13.11,-9.93,0,*49
1506413271.66,20899,15.06,74638.5,8.73,-12.47,-9.49,0,*4F
1506413272.9,20900,15.06,74636.0,8.75,-12.35,-9.31,0,*42
1506413274.14,20901,15.06,74638.0,8.75,-12.47,-9.41,0,*41
1506413275.41,20902,15.06,74636.8,8.77,-12.35,-9.41,0,*45
1506413276.63,20903,15.06,74638.0,8.75,-12.93,-9.97,0,*41
1506413277.91,20904,15.06,74640.5,8.77,-12.07,-9.15,0,*43
1506413279.17,20905,15.06,74636.3,8.75,-11.33,-8.03,0,*42
1506413280.44,20906,15.06,74636.8,8.75,-12.61,-9.45,0,*46
1506413281.67,20907,15.06,74636.3,8.77,-11.45,-8.41,0,*45
1506413282.92,20908,15.06,74634.8,8.77,-12.29,-9.41,0,*42
1506413284.15,20909,15.06,74638.8,8.79,-11.07,-8.45,0,*47
1506413285.37,20910,15.06,74638.5,8.79,-10.89,-7.77,0,*46
1506413286.58,20911,15.13,74636.3,8.79,-11.73,-8.55,0,*4C
1506413287.83,20912,15.06,74638.0,8.81,-11.97,-8.93,0,*48
1506413289.08,20913,15.06,74638.0,8.81,-13.01,-10.23,0,*76
1506413290.33,20914,15.06,74638.0,8.81,-12.79,-9.75,0,*44
1506413291.55,20915,15.13,74638.0,8.81,-12.97,-9.93,0,*4D
1506413292.8,20916,15.06,74636.0,8.81,-13.37,-10.45,0,*76
1506413294.07,20917,15.13,74636.3,8.81,-12.65,-9.61,0,*4F
1506413295.32,20918,15.13,74638.3,8.81,-12.57,-9.75,0,*44
1506413296.57,20919,15.13,74638.0,8.81,-12.65,-9.75,0,*44
1506413297.81,20920,15.06,74636.3,8.85,-12.65,-9.89,0,*49
1506413299.03,20921,15.13,74638.3,8.87,-12.65,-9.75,0,*49
1506413300.25,20922,15.13,74634.3,8.87,-12.29,-9.45,0,*41
1506413301.47,20923,15.13,74636.3,8.87,-12.57,-9.71,0,*4E
1506413302.69,20924,15.13,74636.0,8.87,-12.21,-9.53,0,*48
1506413303.95,20925,15.13,74638.5,8.89,-12.71,-10.01,0,*7D
1506413305.21,20926,15.13,74640.3,8.89,-12.61,-9.83,0,*4D
1506413306.42,20927,15.06,74638.3,8.91,-13.15,-10.35,0,*72
1506413307.65,20928,15.13,74642.8,8.91,-13.51,-10.75,0,*79
1506413308.85,20929,15.13,74646.0,8.91,-13.11,-10.45,0,*7F
1506413310.1,20930,15.13,74642.5,8.91,-12.11,-9.37,0,*4B